Los Angeles - LAX

The City of Angels

The Los Angeles International Airport is the largest West Coast hub in the United States and acts as a key connection point for flights coming to and from destinations throughout and across the Pacific Ocean. American Airlines operates enough flights out of this mega hub to make up around 25% of the total passenger share.

LAX Based Pilots: 9   Miles to LAX: 215055
Flights from LAX: 245   Total Hours: 1167.87
Routes using LAX: 629   From LAX: 618.7
Total Miles: 468043   Hours To LAX: 549.17
Miles from LAX: 252988   LAX Charts: Click Here
VATSIM METAR: KLAX 272053Z 24012KT 10SM FEW025 FEW034 BKN140 21/12 A3003 RMK AO2 SLP168 T02060117 58009
 
         
View More: Click Here
   

 

Earn Your Wings

Interested in joining our LAX hub? Hover for more!

Your journey starts here. Your journey starts now. A whole new experience is at your fingertips.

Like what you see and ready to join the team?

A rewarding and memorable virtual airline experience awaits!